,,,PA_Meas_PMT16A,,PR_Meas_QMR101_102,,RH_Meas_QMH101,,SR_Meas_QMS101,,TA_Meas_QMH101,,GenWind,,GenWind,
date,time,status,PA,status,PR,status,RH,status,SR,status,TA,status,DirAvg,status,SpdAvg,
2012-03-06, 00:00:04,VALID,1007.12,VALID,0,VALID,104,VALID,0.112112,VALID,24.0819,VALID,40,VALID,0.106641,
2012-03-06, 00:01:04,VALID,1007.07,VALID,0,VALID,104,VALID,0.112112,VALID,24.0606,VALID,40,VALID,0.138281,
2012-03-06, 00:02:04,VALID,1007.03,VALID,0,VALID,104,VALID,0,VALID,24.0819,VALID,40,VALID,0.0367187,
2012-03-06, 00:03:04,VALID,1007.01,VALID,0,VALID,104,VALID,0.112112,VALID,24.0819,VALID,40,VALID,0.185547,
2012-03-06, 00:04:04,VALID,1006.96,VALID,0,VALID,104,VALID,0,VALID,24.0819,VALID,40,VALID,0.0078125,
2012-03-06, 00:05:04,VALID,1006.92,VALID,0,VALID,104,VALID,0.112112,VALID,24.0624,VALID,40,VALID,0,
2012-03-06, 00:06:04,VALID,1006.9,VALID,0,VALID,104,VALID,0.112112,VALID,24.0819,VALID,40,VALID,0.450781,
2012-03-06, 00:07:04,VALID,1006.9,VALID,0,VALID,104,VALID,0.112112,VALID,24.0837,VALID,40,VALID,0.155859,
2012-03-06, 00:08:04,VALID,1006.9,VALID,0,VALID,104,VALID,0.112112,VALID,24.0819,VALID,39,VALID,0.512109,
2012-03-06, 00:09:04,VALID,1006.9,VALID,0,VALID,104,VALID,0,VALID,24.0837,VALID,39,VALID,0.216406,
2012-03-06, 00:10:04,VALID,1006.88,VALID,0,VALID,104,VALID,0,VALID,24.0837,VALID,39,VALID,0.285156,
2012-03-06, 00:11:04,VALID,1006.92,VALID,0,VALID,104,VALID,0,VALID,24.0837,VALID,39,VALID,0.242969,
2012-03-06, 00:12:04,VALID,1006.93,VALID,0,VALID,104,VALID,0,VALID,24.0643,VALID,39,VALID,0,
2012-03-06, 00:13:04,VALID,1006.91,VALID,0,VALID,104,VALID,0,VALID,24.0643,VALID,39,VALID,0,
2012-03-06, 00:14:04,VALID,1006.91,VALID,0,VALID,104,VALID,0,VALID,24.0856,VALID,39,VALID,0,
2012-03-06, 00:15:04,VALID,1006.91,VALID,0,VALID,104,VALID,0,VALID,24.0643,VALID,39,VALID,0,
2012-03-06, 00:16:04,VALID,1006.88,VALID,0,VALID,104,VALID,0,VALID,24.0235,VALID,39,VALID,0,
2012-03-06, 00:17:04,VALID,1006.87,VALID,0,VALID,104,VALID,0,VALID,24.0253,VALID,39,VALID,0,
2012-03-06, 00:18:04,VALID,1006.85,VALID,0,VALID,104,VALID,0,VALID,24.0253,VALID,39,VALID,0,
2012-03-06, 00:19:04,VALID,1006.85,VALID,0,VALID,104,VALID,0,VALID,24.0253,VALID,39,VALID,0.126172,
2012-03-06, 00:20:04,VALID,1006.81,VALID,0,VALID,104,VALID,0,VALID,24.0058,VALID,39,VALID,0.0558594,
2012-03-06, 00:21:04,VALID,1006.79,VALID,0,VALID,104,VALID,0,VALID,24.0058,VALID,39,VALID,0.211328,
2012-03-06, 00:22:04,VALID,1006.76,VALID,0,VALID,104,VALID,0,VALID,24.0058,VALID,39,VALID,0,
2012-03-06, 00:23:04,VALID,1006.73,VALID,0,VALID,104,VALID,0,VALID,24.0058,VALID,39,VALID,0,
2012-03-06, 00:24:04,VALID,1006.69,VALID,0,VALID,104,VALID,0,VALID,23.9863,VALID,39,VALID,0.135547,
2012-03-06, 00:25:04,VALID,1006.7,VALID,0,VALID,104,VALID,0,VALID,23.9863,VALID,39,VALID,0.593359,
2012-03-06, 00:26:04,VALID,1006.65,VALID,0,VALID,104,VALID,0,VALID,23.9863,VALID,39,VALID,0.28125,
2012-03-06, 00:27:04,VALID,1006.61,VALID,0,VALID,104,VALID,0,VALID,23.9863,VALID,39,VALID,0.251953,
2012-03-06, 00:28:04,VALID,1006.63,VALID,0,VALID,104,VALID,0,VALID,23.9668,VALID,39,VALID,0.221875,
2012-03-06, 00:29:04,VALID,1006.57,VALID,0,VALID,104,VALID,0,VALID,23.9473,VALID,39,VALID,0.0210938,
2012-03-06, 00:30:04,VALID,1006.58,VALID,0,VALID,104,VALID,0,VALID,23.9278,VALID,39,VALID,0.368359,
2012-03-06, 00:31:04,VALID,1006.55,VALID,0,VALID,104,VALID,0,VALID,23.9278,VALID,39,VALID,0.139062,
2012-03-06, 00:32:04,VALID,1006.52,VALID,0,VALID,104,VALID,0,VALID,23.9084,VALID,39,VALID,0.0625,
2012-03-06, 00:33:04,VALID,1006.51,VALID,0,VALID,104,VALID,0,VALID,23.9297,VALID,39,VALID,0,
2012-03-06, 00:34:04,VALID,1006.47,VALID,0,VALID,104,VALID,0,VALID,23.9102,VALID,39,VALID,0.0113281,
2012-03-06, 00:35:04,VALID,1006.46,VALID,0,VALID,104,VALID,0,VALID,23.8889,VALID,39,VALID,0,
2012-03-06, 00:36:04,VALID,1006.46,VALID,0,VALID,104,VALID,0,VALID,23.8694,VALID,39,VALID,0,
2012-03-06, 00:37:04,VALID,1006.49,VALID,0,VALID,104,VALID,0,VALID,23.8499,VALID,39,VALID,0,
2012-03-06, 00:38:04,VALID,1006.48,VALID,0,VALID,104,VALID,0,VALID,23.8499,VALID,39,VALID,0,
2012-03-06, 00:39:04,VALID,1006.51,VALID,0,VALID,104,VALID,0,VALID,23.8499,VALID,39,VALID,0.0734375,
2012-03-06, 00:40:04,VALID,1006.52,VALID,0,VALID,104,VALID,0,VALID,23.8517,VALID,39,VALID,0.0398437,
2012-03-06, 00:41:04,VALID,1006.52,VALID,0,VALID,104,VALID,0,VALID,23.8517,VALID,39,VALID,0.00429688,
2012-03-06, 00:42:04,VALID,1006.51,VALID,0,VALID,104,VALID,0,VALID,23.8499,VALID,39,VALID,0,
2012-03-06, 00:43:04,VALID,1006.53,VALID,0,VALID,104,VALID,0,VALID,23.8304,VALID,39,VALID,0,
2012-03-06, 00:44:04,VALID,1006.55,VALID,0,VALID,104,VALID,0,VALID,23.8109,VALID,39,VALID,0,
2012-03-06, 00:45:04,VALID,1006.53,VALID,0,VALID,104,VALID,0,VALID,23.8304,VALID,39,VALID,0,
2012-03-06, 00:46:04,VALID,1006.53,VALID,0,VALID,104,VALID,0,VALID,23.8517,VALID,39,VALID,0,
2012-03-06, 00:47:04,VALID,1006.53,VALID,0,VALID,104,VALID,0,VALID,23.8322,VALID,39,VALID,0,
2012-03-06, 00:48:04,VALID,1006.54,VALID,0,VALID,104,VALID,0,VALID,23.8304,VALID,39,VALID,0,
2012-03-06, 00:49:04,VALID,1006.55,VALID,0,VALID,104,VALID,0,VALID,23.8109,VALID,39,VALID,0,
2012-03-06, 00:50:04,VALID,1006.53,VALID,0,VALID,104,VALID,0,VALID,23.8517,VALID,39,VALID,0,
2012-03-06, 00:51:04,VALID,1006.57,VALID,0,VALID,104,VALID,0,VALID,23.8109,VALID,39,VALID,0,
2012-03-06, 00:52:04,VALID,1006.55,VALID,0,VALID,104,VALID,0,VALID,23.8517,VALID,39,VALID,0.108594,
2012-03-06, 00:53:04,VALID,1006.58,VALID,0,VALID,104,VALID,0,VALID,23.8109,VALID,39,VALID,0,
2012-03-06, 00:54:04,VALID,1006.6,VALID,0,VALID,104,VALID,0,VALID,23.8322,VALID,39,VALID,0,
2012-03-06, 00:55:04,VALID,1006.62,VALID,0,VALID,104,VALID,0,VALID,23.8127,VALID,39,VALID,0,
2012-03-06, 00:56:04,VALID,1006.64,VALID,0,VALID,104,VALID,0,VALID,23.7914,VALID,39,VALID,0,
2012-03-06, 00:57:04,VALID,1006.63,VALID,0,VALID,104,VALID,0,VALID,23.7932,VALID,39,VALID,0,
2012-03-06, 00:58:04,VALID,1006.66,VALID,0,VALID,104,VALID,0,VALID,23.8127,VALID,39,VALID,0,
2012-03-06, 00:59:04,VALID,1006.65,VALID,0,VALID,104,VALID,0,VALID,23.7932,VALID,39,VALID,0.269531,
2012-03-06, 01:00:04,VALID,1006.66,VALID,0,VALID,104,VALID,0,VALID,23.8109,VALID,39,VALID,0.338672,
2012-03-06, 01:01:04,VALID,1006.61,VALID,0,VALID,104,VALID,0,VALID,23.7914,VALID,39,VALID,0.250391,
2012-03-06, 01:02:04,VALID,1006.59,VALID,0,VALID,104,VALID,0,VALID,23.8109,VALID,39,VALID,0.709766,
2012-03-06, 01:03:04,VALID,1006.57,VALID,0,VALID,104,VALID,0,VALID,23.8322,VALID,62,VALID,0.295703,
2012-03-06, 01:04:04,VALID,1006.58,VALID,0,VALID,104,VALID,0,VALID,23.8712,VALID,66,VALID,0.708594,
2012-03-06, 01:05:04,VALID,1006.59,VALID,0,VALID,104,VALID,0,VALID,23.8517,VALID,67,VALID,0.381641,
2012-03-06, 01:06:04,VALID,1006.56,VALID,0,VALID,104,VALID,0,VALID,23.8712,VALID,67,VALID,0.447656,
2012-03-06, 01:07:04,VALID,1006.57,VALID,0,VALID,104,VALID,0,VALID,23.8694,VALID,66,VALID,0.303906,
2012-03-06, 01:08:04,VALID,1006.56,VALID,0,VALID,104,VALID,0,VALID,23.8712,VALID,66,VALID,0.211328,
2012-03-06, 01:09:04,VALID,1006.56,VALID,0,VALID,104,VALID,0,VALID,23.8694,VALID,66,VALID,0.422266,
2012-03-06, 01:10:04,VALID,1006.55,VALID,0,VALID,104,VALID,0,VALID,23.8481,VALID,66,VALID,0.327734,
2012-03-06, 01:11:04,VALID,1006.53,VALID,0,VALID,104,VALID,0,VALID,23.8481,VALID,52,VALID,0.616797,
2012-03-06, 01:12:04,VALID,1006.52,VALID,0,VALID,104,VALID,0.112112,VALID,23.8676,VALID,52,VALID,0.626953,
2012-03-06, 01:13:04,VALID,1006.54,VALID,0,VALID,104,VALID,0.112112,VALID,23.8889,VALID,52,VALID,0.526172,
2012-03-06, 01:14:04,VALID,1006.54,VALID,0,VALID,104,VALID,0.112112,VALID,23.8694,VALID,52,VALID,0.483984,
2012-03-06, 01:15:04,VALID,1006.55,VALID,0,VALID,104,VALID,0.112112,VALID,23.8676,VALID,52,VALID,0.314453,
2012-03-06, 01:16:04,VALID,1006.53,VALID,0,VALID,104,VALID,0,VALID,23.8694,VALID,60,VALID,0.711328,
2012-03-06, 01:17:04,VALID,1006.52,VALID,0,VALID,104,VALID,0,VALID,23.8871,VALID,75,VALID,0.347266,
2012-03-06, 01:18:04,VALID,1006.49,VALID,0,VALID,104,VALID,0.112112,VALID,23.9065,VALID,68,VALID,0.850781,
2012-03-06, 01:19:04,VALID,1006.51,VALID,0,VALID,104,VALID,0.112112,VALID,23.9065,VALID,68,VALID,0.942578,
2012-03-06, 01:20:04,VALID,1006.47,VALID,0,VALID,104,VALID,0,VALID,23.926,VALID,77,VALID,0.473047,
2012-03-06, 01:21:05,VALID,1006.46,VALID,0,VALID,104,VALID,0.112112,VALID,23.9455,VALID,77,VALID,0.277734,
2012-03-06, 01:22:05,VALID,1006.45,VALID,0,VALID,104,VALID,0.112112,VALID,23.9455,VALID,90,VALID,0.676562,
2012-03-06, 01:23:05,VALID,1006.47,VALID,0,VALID,104,VALID,0.112112,VALID,23.9455,VALID,114,VALID,0.557813,
2012-03-06, 01:24:05,VALID,1006.47,VALID,0,VALID,104,VALID,0,VALID,23.9473,VALID,90,VALID,0.652734,
2012-03-06, 01:25:05,VALID,1006.48,VALID,0,VALID,104,VALID,0,VALID,23.9473,VALID,92,VALID,0.86875,
2012-03-06, 01:26:05,VALID,1006.48,VALID,0,VALID,104,VALID,0,VALID,23.9473,VALID,98,VALID,0.83125,
2012-03-06, 01:27:05,VALID,1006.48,VALID,0,VALID,104,VALID,0,VALID,23.9473,VALID,98,VALID,0.776172,
2012-03-06, 01:28:05,VALID,1006.5,VALID,0,VALID,104,VALID,0,VALID,23.9686,VALID,106,VALID,0.823047,
2012-03-06, 01:29:05,VALID,1006.49,VALID,0,VALID,104,VALID,0,VALID,23.9473,VALID,106,VALID,0.500781,
2012-03-06, 01:30:05,VALID,1006.52,VALID,0,VALID,104,VALID,0,VALID,23.9473,VALID,108,VALID,0.501172,
2012-03-06, 01:31:05,VALID,1006.46,VALID,0,VALID,104,VALID,0,VALID,23.9473,VALID,111,VALID,0.891016,
2012-03-06, 01:32:05,VALID,1006.45,VALID,0,VALID,104,VALID,0,VALID,23.9686,VALID,110,VALID,0.593359,
2012-03-06, 01:33:05,VALID,1006.46,VALID,0,VALID,104,VALID,0,VALID,23.9473,VALID,110,VALID,0.227734,
2012-03-06, 01:34:05,VALID,1006.41,VALID,0,VALID,104,VALID,0,VALID,23.9473,VALID,105,VALID,0.783984,
2012-03-06, 01:35:05,VALID,1006.39,VALID,0,VALID,104,VALID,0,VALID,23.9668,VALID,96,VALID,0.696484,
2012-03-06, 01:36:05,VALID,1006.39,VALID,0,VALID,104,VALID,0,VALID,23.9881,VALID,94,VALID,0.455078,
2012-03-06, 01:37:05,VALID,1006.4,VALID,0,VALID,104,VALID,0,VALID,23.9668,VALID,66,VALID,1.03047,
2012-03-06, 01:38:05,VALID,1006.38,VALID,0,VALID,104,VALID,0,VALID,23.9881,VALID,74,VALID,1.3,
2012-03-06, 01:39:05,VALID,1006.36,VALID,0,VALID,104,VALID,0,VALID,23.9668,VALID,82,VALID,1.07461,
2012-03-06, 01:40:05,VALID,1006.35,VALID,0,VALID,104,VALID,0.112112,VALID,23.9863,VALID,85,VALID,1.06875,
2012-03-06, 01:41:05,VALID,1006.34,VALID,0,VALID,104,VALID,0,VALID,23.9668,VALID,71,VALID,0.742188,
2012-03-06, 01:42:05,VALID,1006.32,VALID,0,VALID,104,VALID,0,VALID,23.9668,VALID,72,VALID,0.59375,
2012-03-06, 01:43:05,VALID,1006.29,VALID,0,VALID,104,VALID,0,VALID,23.9668,VALID,67,VALID,0.726953,
2012-03-06, 01:44:05,VALID,1006.29,VALID,0,VALID,104,VALID,0,VALID,23.9881,VALID,61,VALID,0.76875,
2012-03-06, 01:45:05,VALID,1006.29,VALID,0,VALID,104,VALID,0,VALID,23.9668,VALID,61,VALID,0.554688,
2012-03-06, 01:46:05,VALID,1006.3,VALID,0,VALID,104,VALID,0,VALID,23.9668,VALID,67,VALID,0.8,
2012-03-06, 01:47:05,VALID,1006.3,VALID,0,VALID,104,VALID,0,VALID,23.9668,VALID,59,VALID,0.640625,
2012-03-06, 01:48:05,VALID,1006.32,VALID,0,VALID,104,VALID,0,VALID,23.9278,VALID,28,VALID,0.728906,
2012-03-06, 01:49:05,VALID,1006.33,VALID,0,VALID,104,VALID,0,VALID,23.9473,VALID,32,VALID,0.448438,
2012-03-06, 01:50:05,VALID,1006.32,VALID,0,VALID,104,VALID,0,VALID,23.9473,VALID,32,VALID,0.151953,
2012-03-06, 01:51:05,VALID,1006.36,VALID,0,VALID,104,VALID,0,VALID,23.9473,VALID,32,VALID,0.439453,
2012-03-06, 01:52:05,VALID,1006.38,VALID,0,VALID,104,VALID,0,VALID,23.9473,VALID,32,VALID,0.499609,
2012-03-06, 01:53:05,VALID,1006.35,VALID,0,VALID,104,VALID,0,VALID,23.9278,VALID,32,VALID,0.841016,
2012-03-06, 01:54:05,VALID,1006.36,VALID,0,VALID,104,VALID,0,VALID,23.9473,VALID,43,VALID,0.457812,
2012-03-06, 01:55:05,VALID,1006.34,VALID,0,VALID,104,VALID,0,VALID,23.9473,VALID,46,VALID,0.625781,
2012-03-06, 01:56:05,VALID,1006.34,VALID,0,VALID,104,VALID,0,VALID,23.9473,VALID,46,VALID,0.626172,
2012-03-06, 01:57:05,VALID,1006.35,VALID,0,VALID,104,VALID,0,VALID,23.9278,VALID,46,VALID,0.351953,
2012-03-06, 01:58:05,VALID,1006.35,VALID,0,VALID,104,VALID,0,VALID,23.9473,VALID,46,VALID,0.396875,
2012-03-06, 01:59:05,VALID,1006.31,VALID,0,VALID,104,VALID,0,VALID,23.9473,VALID,46,VALID,0.172266,
2012-03-06, 02:00:05,VALID,1006.35,VALID,0,VALID,104,VALID,0,VALID,23.9065,VALID,46,VALID,0.289063,
2012-03-06, 02:01:05,VALID,1006.33,VALID,0,VALID,104,VALID,0,VALID,23.9473,VALID,46,VALID,0,
2012-03-06, 02:02:05,VALID,1006.33,VALID,0,VALID,104,VALID,0,VALID,23.9473,VALID,46,VALID,0,
2012-03-06, 02:03:05,VALID,1006.32,VALID,0,VALID,104,VALID,0,VALID,23.9473,VALID,51,VALID,0.0515625,
2012-03-06, 02:04:05,VALID,1006.31,VALID,0,VALID,104,VALID,0,VALID,23.9881,VALID,105,VALID,0.384766,
2012-03-06, 02:05:05,VALID,1006.32,VALID,0,VALID,104,VALID,0,VALID,23.9668,VALID,93,VALID,0.541016,
2012-03-06, 02:06:05,VALID,1006.28,VALID,0,VALID,104,VALID,0,VALID,23.9881,VALID,93,VALID,0.347656,
2012-03-06, 02:07:05,VALID,1006.3,VALID,0,VALID,104,VALID,0,VALID,23.965,VALID,93,VALID,0,
2012-03-06, 02:08:05,VALID,1006.31,VALID,0,VALID,104,VALID,0,VALID,23.9863,VALID,75,VALID,0.383594,
2012-03-06, 02:09:05,VALID,1006.3,VALID,0,VALID,104,VALID,0,VALID,23.9668,VALID,60,VALID,0.802734,
2012-03-06, 02:10:05,VALID,1006.3,VALID,0,VALID,104,VALID,0,VALID,23.9668,VALID,58,VALID,0.619922,
2012-03-06, 02:11:05,VALID,1006.32,VALID,0,VALID,104,VALID,0,VALID,23.9668,VALID,55,VALID,0.485938,
2012-03-06, 02:12:05,VALID,1006.32,VALID,0,VALID,104,VALID,0,VALID,23.9668,VALID,55,VALID,0.278125,
2012-03-06, 02:13:05,VALID,1006.3,VALID,0,VALID,104,VALID,0,VALID,23.9668,VALID,64,VALID,1.01094,
2012-03-06, 02:14:05,VALID,1006.3,VALID,0,VALID,104,VALID,0,VALID,23.9455,VALID,72,VALID,0.861328,
2012-03-06, 02:15:05,VALID,1006.3,VALID,0,VALID,104,VALID,0,VALID,23.9668,VALID,73,VALID,1.32695,
2012-03-06, 02:16:05,VALID,1006.29,VALID,0,VALID,104,VALID,0,VALID,23.9863,VALID,71,VALID,0.779297,
2012-03-06, 02:17:05,VALID,1006.29,VALID,0,VALID,104,VALID,0,VALID,24.0058,VALID,90,VALID,0.853125,
2012-03-06, 02:18:05,VALID,1006.29,VALID,0,VALID,104,VALID,0,VALID,23.9863,VALID,88,VALID,0.344922,
2012-03-06, 02:19:05,VALID,1006.3,VALID,0,VALID,104,VALID,0,VALID,23.9845,VALID,79,VALID,0.816016,
2012-03-06, 02:20:05,VALID,1006.32,VALID,0,VALID,104,VALID,0,VALID,23.9863,VALID,67,VALID,0.956641,
2012-03-06, 02:21:05,VALID,1006.35,VALID,0,VALID,104,VALID,0,VALID,24.0058,VALID,65,VALID,0.284766,
2012-03-06, 02:22:05,VALID,1006.35,VALID,0,VALID,104,VALID,0,VALID,24.0058,VALID,65,VALID,0.383984,
2012-03-06, 02:23:05,VALID,1006.35,VALID,0,VALID,104,VALID,0,VALID,23.9863,VALID,65,VALID,0.429688,
2012-03-06, 02:24:05,VALID,1006.37,VALID,0,VALID,104,VALID,0,VALID,23.9863,VALID,40,VALID,0.660547,
2012-03-06, 02:25:05,VALID,1006.37,VALID,0,VALID,104,VALID,0,VALID,23.9668,VALID,38,VALID,0.310547,
2012-03-06, 02:26:05,VALID,1006.37,VALID,0,VALID,104,VALID,0,VALID,23.926,VALID,38,VALID,0.188672,
2012-03-06, 02:27:05,VALID,1006.37,VALID,0,VALID,104,VALID,0,VALID,23.9278,VALID,38,VALID,0.356641,
2012-03-06, 02:28:05,VALID,1006.39,VALID,0,VALID,104,VALID,0,VALID,23.9278,VALID,38,VALID,0.270312,
2012-03-06, 02:29:05,VALID,1006.39,VALID,0,VALID,104,VALID,0,VALID,23.9084,VALID,38,VALID,0.0964844,
2012-03-06, 02:30:05,VALID,1006.39,VALID,0,VALID,104,VALID,0,VALID,23.9084,VALID,37,VALID,0.610937,
2012-03-06, 02:31:05,VALID,1006.38,VALID,0,VALID,104,VALID,0,VALID,23.9102,VALID,37,VALID,0.19375,
2012-03-06, 02:32:05,VALID,1006.39,VALID,0,VALID,104,VALID,0,VALID,23.9084,VALID,37,VALID,0.0375,
2012-03-06, 02:33:05,VALID,1006.38,VALID,0,VALID,104,VALID,0,VALID,23.8889,VALID,37,VALID,0.0660156,
2012-03-06, 02:34:05,VALID,1006.37,VALID,0,VALID,104,VALID,0,VALID,23.9084,VALID,37,VALID,0.141016,
2012-03-06, 02:35:05,VALID,1006.39,VALID,0,VALID,104,VALID,0,VALID,23.8889,VALID,19,VALID,0.260156,
2012-03-06, 02:36:05,VALID,1006.35,VALID,0,VALID,104,VALID,0,VALID,23.8694,VALID,19,VALID,0.278906,
2012-03-06, 02:37:05,VALID,1006.36,VALID,0,VALID,104,VALID,0,VALID,23.8694,VALID,19,VALID,0.0421875,
2012-03-06, 02:38:05,VALID,1006.36,VALID,0,VALID,104,VALID,0,VALID,23.8694,VALID,19,VALID,0.123828,
2012-03-06, 02:39:05,VALID,1006.36,VALID,0,VALID,104,VALID,0,VALID,23.8694,VALID,19,VALID,0.308984,
2012-03-06, 02:40:05,VALID,1006.36,VALID,0,VALID,104,VALID,0,VALID,23.8712,VALID,19,VALID,0.275391,
2012-03-06, 02:41:05,VALID,1006.32,VALID,0,VALID,104,VALID,0,VALID,23.8694,VALID,19,VALID,0.300781,
2012-03-06, 02:42:05,VALID,1006.3,VALID,0,VALID,104,VALID,0,VALID,23.8694,VALID,19,VALID,0.00429688,
2012-03-06, 02:43:05,VALID,1006.31,VALID,0,VALID,104,VALID,0,VALID,23.8694,VALID,19,VALID,0.242969,
2012-03-06, 02:44:05,VALID,1006.3,VALID,0,VALID,104,VALID,0,VALID,23.9102,VALID,19,VALID,0.642578,
2012-03-06, 02:45:05,VALID,1006.29,VALID,0,VALID,104,VALID,0,VALID,23.8694,VALID,48,VALID,0.773047,
2012-03-06, 02:46:05,VALID,1006.25,VALID,0,VALID,104,VALID,0,VALID,23.8889,VALID,83,VALID,0.702734,
2012-03-06, 02:47:05,VALID,1006.25,VALID,0,VALID,104,VALID,0,VALID,23.8889,VALID,75,VALID,0.693359,
2012-03-06, 02:48:05,VALID,1006.24,VALID,0,VALID,104,VALID,0,VALID,23.8889,VALID,74,VALID,0.817578,
2012-03-06, 02:49:05,VALID,1006.24,VALID,0,VALID,104,VALID,0,VALID,23.8889,VALID,83,VALID,0.905078,
2012-03-06, 02:50:05,VALID,1006.24,VALID,0,VALID,104,VALID,0,VALID,23.8889,VALID,76,VALID,1.16562,
2012-03-06, 02:51:05,VALID,1006.21,VALID,0,VALID,104,VALID,0,VALID,23.8889,VALID,76,VALID,0.819922,
2012-03-06, 02:52:05,VALID,1006.22,VALID,0,VALID,104,VALID,0,VALID,23.9084,VALID,73,VALID,0.790625,
2012-03-06, 02:53:05,VALID,1006.2,VALID,0,VALID,104,VALID,0,VALID,23.9084,VALID,73,VALID,0.309766,
2012-03-06, 02:54:05,VALID,1006.21,VALID,0,VALID,104,VALID,0,VALID,23.8871,VALID,92,VALID,1.16914,
2012-03-06, 02:55:05,VALID,1006.19,VALID,0,VALID,104,VALID,0,VALID,23.9084,VALID,82,VALID,1.03477,
2012-03-06, 02:56:05,VALID,1006.19,VALID,0,VALID,104,VALID,0,VALID,23.9491,VALID,87,VALID,1.05273,
2012-03-06, 02:57:05,VALID,1006.19,VALID,0,VALID,104,VALID,0,VALID,23.9297,VALID,80,VALID,1.05273,
2012-03-06, 02:58:05,VALID,1006.2,VALID,0,VALID,104,VALID,0,VALID,23.9491,VALID,83,VALID,0.858203,
2012-03-06, 02:59:05,VALID,1006.16,VALID,0,VALID,104,VALID,0,VALID,23.9278,VALID,76,VALID,1.3293,
2012-03-06, 03:00:05,VALID,1006.17,VALID,0,VALID,104,VALID,0,VALID,23.9491,VALID,80,VALID,0.919531,
2012-03-06, 03:01:05,VALID,1006.18,VALID,0,VALID,104,VALID,0,VALID,23.9084,VALID,87,VALID,1.09492,
2012-03-06, 03:02:05,VALID,1006.18,VALID,0,VALID,104,VALID,0,VALID,23.9084,VALID,86,VALID,0.625391,
2012-03-06, 03:03:05,VALID,1006.15,VALID,0,VALID,104,VALID,0,VALID,23.9084,VALID,76,VALID,1.06289,
2012-03-06, 03:04:05,VALID,1006.17,VALID,0,VALID,104,VALID,0,VALID,23.9278,VALID,74,VALID,0.898438,
2012-03-06, 03:05:05,VALID,1006.17,VALID,0,VALID,104,VALID,0,VALID,23.9084,VALID,74,VALID,0.631641,
2012-03-06, 03:06:05,VALID,1006.16,VALID,0,VALID,104,VALID,0,VALID,23.9084,VALID,80,VALID,0.668359,
2012-03-06, 03:07:05,VALID,1006.13,VALID,0,VALID,104,VALID,0,VALID,23.9297,VALID,60,VALID,1.10781,
2012-03-06, 03:08:05,VALID,1006.16,VALID,0,VALID,104,VALID,0,VALID,23.9084,VALID,83,VALID,0.771484,
2012-03-06, 03:09:05,VALID,1006.15,VALID,0,VALID,104,VALID,0.112112,VALID,23.9065,VALID,69,VALID,0.935156,
2012-03-06, 03:10:05,VALID,1006.14,VALID,0,VALID,104,VALID,0.112112,VALID,23.9065,VALID,62,VALID,0.738672,
2012-03-06, 03:11:05,VALID,1006.14,VALID,0,VALID,104,VALID,0,VALID,23.926,VALID,62,VALID,0.220703,
2012-03-06, 03:12:05,VALID,1006.13,VALID,0,VALID,104,VALID,0.112112,VALID,23.926,VALID,108,VALID,0.824609,
2012-03-06, 03:13:05,VALID,1006.18,VALID,0,VALID,104,VALID,0.112112,VALID,23.926,VALID,124,VALID,0.891016,
2012-03-06, 03:14:05,VALID,1006.19,VALID,0,VALID,104,VALID,0.112112,VALID,23.9455,VALID,113,VALID,0.447266,
2012-03-06, 03:15:05,VALID,1006.2,VALID,0,VALID,104,VALID,0.112112,VALID,23.9455,VALID,88,VALID,0.466016,
2012-03-06, 03:16:05,VALID,1006.21,VALID,0,VALID,104,VALID,0.112112,VALID,23.9455,VALID,107,VALID,0.852734,
2012-03-06, 03:17:05,VALID,1006.23,VALID,0,VALID,104,VALID,0.112112,VALID,23.9455,VALID,97,VALID,1.04258,
2012-03-06, 03:18:05,VALID,1006.25,VALID,0,VALID,104,VALID,0.112112,VALID,23.965,VALID,121,VALID,1.00898,
2012-03-06, 03:19:05,VALID,1006.28,VALID,0,VALID,104,VALID,0.112112,VALID,23.965,VALID,100,VALID,0.0867188,
2012-03-06, 03:20:05,VALID,1006.27,VALID,0,VALID,104,VALID,0.112112,VALID,23.965,VALID,103,VALID,0.451562,
2012-03-06, 03:21:05,VALID,1006.28,VALID,0,VALID,104,VALID,0.112112,VALID,23.965,VALID,90,VALID,0.671875,
2012-03-06, 03:22:05,VALID,1006.28,VALID,0,VALID,104,VALID,0.112112,VALID,23.965,VALID,93,VALID,0.432031,
2012-03-06, 03:23:05,VALID,1006.31,VALID,0,VALID,104,VALID,0.112112,VALID,23.965,VALID,86,VALID,0.859766,
2012-03-06, 03:24:05,VALID,1006.29,VALID,0,VALID,104,VALID,0.112112,VALID,23.965,VALID,86,VALID,0.457031,
2012-03-06, 03:25:05,VALID,1006.27,VALID,0,VALID,104,VALID,0.112112,VALID,23.965,VALID,86,VALID,0.284766,
2012-03-06, 03:26:05,VALID,1006.26,VALID,0,VALID,104,VALID,0.112112,VALID,23.9845,VALID,87,VALID,0.496875,
2012-03-06, 03:27:05,VALID,1006.26,VALID,0,VALID,104,VALID,0,VALID,23.965,VALID,87,VALID,0.332031,
2012-03-06, 03:28:05,VALID,1006.24,VALID,0,VALID,104,VALID,0,VALID,23.965,VALID,83,VALID,0.930469,
2012-03-06, 03:29:05,VALID,1006.25,VALID,0,VALID,104,VALID,0.112112,VALID,23.965,VALID,82,VALID,0.223828,
2012-03-06, 03:30:05,VALID,1006.26,VALID,0,VALID,104,VALID,0.112112,VALID,23.9455,VALID,133,VALID,0.666797,
2012-03-06, 03:31:05,VALID,1006.27,VALID,0,VALID,104,VALID,0.112112,VALID,23.9473,VALID,141,VALID,0.717578,
2012-03-06, 03:32:05,VALID,1006.26,VALID,0,VALID,104,VALID,0,VALID,23.9455,VALID,120,VALID,1.01172,
2012-03-06, 03:33:05,VALID,1006.27,VALID,0,VALID,104,VALID,0,VALID,23.9668,VALID,116,VALID,0.586719,
2012-03-06, 03:34:05,VALID,1006.28,VALID,0,VALID,104,VALID,0,VALID,23.9668,VALID,113,VALID,0.521484,
2012-03-06, 03:35:05,VALID,1006.3,VALID,0,VALID,104,VALID,0.112112,VALID,23.9455,VALID,115,VALID,0.510547,
2012-03-06, 03:36:05,VALID,1006.3,VALID,0,VALID,104,VALID,0.112112,VALID,23.9863,VALID,114,VALID,0.220703,
2012-03-06, 03:37:05,VALID,1006.28,VALID,0,VALID,104,VALID,0,VALID,23.9668,VALID,114,VALID,0.665234,
2012-03-06, 03:38:05,VALID,1006.31,VALID,0,VALID,104,VALID,0.112112,VALID,23.9455,VALID,114,VALID,0.550781,
2012-03-06, 03:39:05,VALID,1006.28,VALID,0,VALID,104,VALID,0,VALID,23.9473,VALID,115,VALID,0.385938,
2012-03-06, 03:40:05,VALID,1006.3,VALID,0,VALID,104,VALID,0,VALID,23.9473,VALID,115,VALID,0.439063,
2012-03-06, 03:41:05,VALID,1006.3,VALID,0,VALID,104,VALID,0,VALID,23.9473,VALID,115,VALID,0.3,
2012-03-06, 03:42:05,VALID,1006.32,VALID,0,VALID,104,VALID,0,VALID,23.9668,VALID,115,VALID,0.454297,
2012-03-06, 03:43:05,VALID,1006.32,VALID,0,VALID,104,VALID,0,VALID,23.9473,VALID,115,VALID,0.794922,
2012-03-06, 03:44:05,VALID,1006.29,VALID,0,VALID,104,VALID,0,VALID,23.9881,VALID,115,VALID,0.362109,
2012-03-06, 03:45:05,VALID,1006.3,VALID,0,VALID,104,VALID,0,VALID,23.9473,VALID,115,VALID,0.355469,
2012-03-06, 03:46:05,VALID,1006.29,VALID,0,VALID,104,VALID,0,VALID,23.9473,VALID,115,VALID,0.332422,
2012-03-06, 03:47:05,VALID,1006.31,VALID,0,VALID,104,VALID,0,VALID,23.9686,VALID,107,VALID,0.562891,
2012-03-06, 03:48:05,VALID,1006.31,VALID,0,VALID,104,VALID,0,VALID,23.9881,VALID,86,VALID,0.987109,
2012-03-06, 03:49:05,VALID,1006.31,VALID,0,VALID,104,VALID,0,VALID,23.9668,VALID,86,VALID,0.810547,
2012-03-06, 03:50:05,VALID,1006.32,VALID,0,VALID,104,VALID,0,VALID,23.9668,VALID,91,VALID,1.01875,
2012-03-06, 03:51:05,VALID,1006.33,VALID,0,VALID,104,VALID,0,VALID,23.9668,VALID,91,VALID,0.427344,
2012-03-06, 03:52:05,VALID,1006.33,VALID,0,VALID,104,VALID,0,VALID,23.9668,VALID,91,VALID,0.591797,
2012-03-06, 03:53:05,VALID,1006.35,VALID,0,VALID,104,VALID,0,VALID,23.9668,VALID,75,VALID,0.797656,
2012-03-06, 03:54:05,VALID,1006.34,VALID,0,VALID,104,VALID,0,VALID,23.9845,VALID,83,VALID,0.468359,